Weather Service Report


091 
ASUS45 KPSR 281610
RWRAZ 

ARIZONA HOURLY REGIONAL WEATHER ROUNDUP
NATIONAL WEATHER SERVICE PHOENIX AZ
900 AM MST TUE FEB 28 2017

NOTE: FAIR INDICATES FEW OR NO CLOUDS BELOW 12,000 FEET WITH NO
SIGNIFICANT WEATHER AND/OR OBSTRUCTIONS TO VISIBILITY.

AZZ001>003-036-281700-
NORTHWEST ARIZONA
  
CITY           SKY/WX    TMP DP  RH WIND       PRES   REMARKS
BULLHEAD CITY  MOSUNNY   54  37  54 E6        29.95R                  
KINGMAN        CLOUDY    44  30  57 W3        29.93R                  
$$

AZZ004>008-015-016-018-281700-
NORTH CENTRAL ARIZONA
  
CITY           SKY/WX    TMP DP  RH WIND       PRES   REMARKS
GRAND CANYON   CLOUDY    30  29  96 SW13G18   29.87R WCI  20          
WILLIAMS       CLOUDY    32  30  93 W7        29.88R WCI  26          
PRESCOTT       LGT RAIN  40  37  89 SW7       29.91R                  
FLAGSTAFF      LGT SNOW  31  28  89 SW12      29.86R FOG     WCI  22  
PAYSON         LGT RAIN  36  34  93 W5        29.95R WCI  32          
PAGE           CLOUDY    42  31  64 W7        29.83R                  
$$

AZZ009>014-017-281700-
NORTHEAST ARIZONA
  
CITY           SKY/WX    TMP DP  RH WIND       PRES   REMARKS
WINSLOW        CLOUDY    37  35  92 N3        29.89R                  
SAINT JOHNS    CLOUDY    45  27  49 SW40G58   29.79R                  
WINDOW ROCK    HVY SNOW  33  31  92 W5        29.84R VSB 1/4 WCI  29  
SHOW LOW       LGT SNOW  32  28  86 S29G38    29.87R VSB 1   WCI  18  
$$

AZZ023-281700-
GREATER PHOENIX AREA
  
CITY           SKY/WX    TMP DP  RH WIND       PRES   REMARKS
PHOENIX        PTSUNNY   55  52  89 NW9       29.94R                  
BUCKEYE        PTSUNNY   55  55 100 NW6       29.96R                  
GLENDALE       CLOUDY    54  54 100 CALM      29.92R FOG              
LUKE AFB       MOSUNNY   55  51  89 CALM      29.93R                  
DEER VALLEY    CLOUDY    53  48  83 NW3       29.94R                  
SCOTTSDALE     CLOUDY    52  48  86 CALM      29.96R                  
MESA-FALCON    PTSUNNY  N/A N/A N/A W8        29.92R                  
MESA-GATEWAY   PTSUNNY   54  50  87 NW5       29.95R                  
CHANDLER       PTSUNNY   55  52  88 N7        29.95R                  
$$

AZZ027-028-281700-
SOUTHWEST MARICOPA COUNTY AND PINAL COUNTY
  
CITY           SKY/WX    TMP DP  RH WIND       PRES   REMARKS
CASA GRANDE    NOT AVBL                                               
GILA BEND      MOSUNNY   60  51  73 SW10      29.95R                  
$$

AZZ503-504-507>509-281700-
SOUTHEAST ARIZONA
  
CITY           SKY/WX    TMP DP  RH WIND       PRES   REMARKS
TUCSON         CLOUDY    58  35  42 W15       30.00R                  
DAVIS-MONTHAN  PTSUNNY   57  35  42 SW15G22   29.98R                  
NOGALES        CLOUDY    53  33  46 S14G20    30.02R                  
SIERRA VISTA   CLOUDY    53  20  27 SW20G25   30.00R                  
DOUGLAS        PTSUNNY   56  14  19 W23G30    29.99R                  
SAFFORD        PTSUNNY   57  35  43 NW10      29.91R                  
$$

AZZ020-021-025-026-031-281700-
SOUTHWEST ARIZONA
  
CITY           SKY/WX    TMP DP  RH WIND       PRES   REMARKS
YUMA           NOT AVBL                                               
$$

CAZ031-033-041-043-047-048-061-281700-
SOUTHERN CALIFORNIA
  
CITY           SKY/WX    TMP DP  RH WIND       PRES   REMARKS
DOWNTOWN L.A.  SUNNY     54  32  43 CALM      30.04R                  
L.A. AIRPORT   MOSUNNY   54  29  38 N15G22    30.04R                  
SAN DIEGO      MOSUNNY   56  43  61 W8        30.09R                  
BURBANK        SUNNY     50  29  44 E7        30.03R                  
ONTARIO        MOSUNNY   48  46  93 CALM      30.04R FOG              
RIVERSIDE      SUNNY     46  46 100 CALM      30.05R                  
PALM SPRINGS   MOSUNNY   54  53  97 CALM      30.00R                  
IMPERIAL       MOSUNNY   56  45  66 W7        29.99R                  
BLYTHE         SUNNY     54  52  93 SW5       29.98R                  
NEEDLES        SUNNY     55  38  52 W8        29.94R                  
$$

NVZ020-UTZ003-281700-
SOUTHERN NEVADA-UTAH
  
CITY           SKY/WX    TMP DP  RH WIND       PRES   REMARKS
LAS VEGAS      MOSUNNY   49  31  49 SE7       29.94R                  
SALT LAKE CITY PTSUNNY   27  21  78 SE12      29.91R WCI  17          
$$

NMZ009-TXZ055-281700-
NEW MEXICO-WEST TEXAS
  
CITY           SKY/WX    TMP DP  RH WIND       PRES   REMARKS
ALBUQUERQUE    PTSUNNY   51  25  36 S22G31    29.80F                  
EL PASO        PTSUNNY   64  15  15 SW15G21   29.94F                  
$$


........................KEY........................
SKY/WX - SKY CONDITION/WEATHER
TMP    - TEMPERATURE IN FAHRENHEIT
DP     - DEW POINT IN FAHRENHEIT
RH     - RELATIVE HUMIDITY IN PERCENT
WIND   - DIRECTION AND SPEED IN MILES PER HOUR (MPH)
VRB    - VARIABLE WIND DIRECTION
PRES   - MEAN SEA LEVEL PRESSURE IN INCHES OF MERCURY
         F - FALLING PRESSURE   R - RISING PRESSURE
         S - STEADY PRESSURE
VSB    - VISIBILITY IN MILES
HX     - HEAT INDEX IN FAHRENHEIT
WCI    - WIND CHILL INDEX IN FAHRENHEIT
TC     - TEMPERATURE IN CELSIUS WHICH IS ALSO KNOWN AS
         TEMPERATURE IN CENTIGRADE
AFB    - AIR FORCE BASE
         LUKE AFB IS LUKE AIR FORCE BASE
         DAVIS-MONTHAN IS DAVIS-MONTHAN AIR FORCE BASE
NAS    - NAVAL AIR STATION
         EL CENTRO NAS IS EL CENTRO NAVAL AIR STATION
N/A    - NOT AVAILABLE

  

Return to Home page


Western Regional Climate Center, wrcc@dri.edu